Location: Antist
(43.1184°N, 0.1270°E)
Time: 19:51:10
(UTC+00:00)

Cosmos 2227 Rocket - Pass Details

Date: 19 January 2020
Orbit: 841 x 843 km, 71.0° (Epoch: 21 February)

Event Time Altitude Azimuth Distance (km) Brightness Sun altitude
Rises 19:03:41 0° 206° (SSW) 3,383 5.8 -23.3°
Reaches altitude 10° 19:06:07 10° 207° (SSW) 2,452 5.0 -23.8°
Maximum altitude 19:11:45 81° 294° (WNW) 856 2.2 -24.8°
Enters shadow 19:13:57 39° 17° (NNE) 1,241 2.8 -25.2°
